Location: Unspecified
(50.9280°N, 0.0000°E)
Time: 14:11:01
(UTC+00:00)

Altair - All Passes

Search period start: 04 April 2026 00:00
Search period end: 14 April 2026 00:00
Orbit: 1502 x 1682 km, 47.2° (Epoch: 29 March)

Date Brightness Start Highest point End Pass type
(mag) Time Alt. Az. Time Alt. Az. Time Alt. Az.
4 Apr - 13:57:51 10° SSE 14:02:42 15° SE 14:07:28 10° E daylight
4 Apr - 15:56:28 10° SSW 16:05:27 42° SSE 16:14:07 10° E daylight
4 Apr - 17:59:42 10° WSW 18:09:19 69° S 18:18:36 10° E daylight
4 Apr - 20:04:12 10° W 20:13:38 67° SSW 20:22:46 10° ESE visible
4 Apr - 22:08:58 10° W 22:17:19 38° SW 22:25:30 10° SSE visible
5 Apr - 00:17:05 10° WSW 00:19:42 11° WSW 00:22:18 10° SW visible
5 Apr - 13:33:33 10° SSE 13:37:39 13° SE 13:41:41 10° E daylight
5 Apr - 15:31:24 10° SSW 15:40:17 40° SE 15:48:53 10° E daylight
5 Apr - 17:34:28 10° WSW 17:44:07 67° SSE 17:53:24 10° E daylight
5 Apr - 19:38:56 10° W 19:48:27 68° SSW 19:57:37 10° ESE visible
5 Apr - 21:43:41 10° W 21:52:12 40° SW 22:00:31 10° SSE visible
5 Apr - 23:50:57 10° W 23:54:41 13° SW 23:58:24 10° SSW visible
6 Apr - 13:09:32 10° SE 13:12:36 12° ESE 13:15:38 10° ESE daylight
6 Apr - 15:06:22 10° SSW 15:15:08 38° SE 15:23:38 10° E daylight
6 Apr - 17:09:14 10° WSW 17:18:54 66° SSE 17:28:12 10° E daylight
6 Apr - 19:13:42 10° W 19:23:14 69° S 19:32:27 10° ESE visible
6 Apr - 21:18:24 10° W 21:27:05 42° SSW 21:35:30 10° SSE visible
6 Apr - 23:25:07 10° W 23:29:40 15° SW 23:34:10 10° SSW visible
7 Apr - 12:46:17 10° SE 12:47:33 10° ESE 12:48:50 10° ESE daylight
7 Apr - 14:41:21 10° SSW 14:50:00 35° SE 14:58:22 10° E daylight
7 Apr - 16:44:01 10° WSW 16:53:42 65° SSE 17:03:00 10° E daylight
7 Apr - 18:48:26 10° W 18:58:02 70° S 19:07:17 10° ESE daylight
7 Apr - 20:53:07 10° W 21:01:56 45° SSW 21:10:30 10° SE visible
7 Apr - 22:59:26 10° W 23:04:37 16° SW 23:09:45 10° SSW visible
8 Apr - 14:16:22 10° SSW 14:24:51 33° SE 14:33:06 10° E daylight
8 Apr - 16:18:48 10° WSW 16:28:29 63° SSE 16:37:48 10° E daylight
8 Apr - 18:23:10 10° W 18:32:49 71° S 18:42:06 10° ESE daylight
8 Apr - 20:27:51 10° W 20:36:48 47° SSW 20:45:28 10° SE visible
8 Apr - 22:33:52 10° W 22:39:35 18° SW 22:45:15 10° SSW visible
9 Apr - 13:51:25 10° SSW 13:59:43 31° SE 14:07:48 10° E daylight
9 Apr - 15:53:37 10° WSW 16:03:17 61° SSE 16:12:36 10° E daylight
9 Apr - 17:57:54 10° W 18:07:36 72° S 18:16:55 10° ESE daylight
9 Apr - 20:02:35 10° W 20:11:38 50° SSW 20:20:25 10° SE visible
9 Apr - 22:08:20 10° W 22:14:32 20° SW 22:20:38 10° S visible
10 Apr - 13:26:29 10° SSW 13:34:36 29° SE 13:42:30 10° E daylight
10 Apr - 15:28:25 10° SW 15:38:05 59° SSE 15:47:23 10° E daylight
10 Apr - 17:32:38 10° W 17:42:23 72° S 17:51:44 10° ESE daylight
10 Apr - 19:37:18 10° W 19:46:29 52° SSW 19:55:21 10° SE visible
10 Apr - 21:42:52 10° W 21:49:29 22° SW 21:55:59 10° S visible
11 Apr - 13:01:35 10° S 13:09:29 27° SE 13:17:11 10° E daylight
11 Apr - 15:03:14 10° SW 15:12:52 57° SSE 15:22:11 10° E daylight
11 Apr - 17:07:22 10° W 17:17:09 73° S 17:26:33 10° E daylight
11 Apr - 19:12:02 10° W 19:21:19 54° SSW 19:30:16 10° SE visible
11 Apr - 21:17:26 10° W 21:24:25 24° SW 21:31:15 10° S visible
12 Apr - 12:36:44 10° S 12:44:22 25° SE 12:51:50 10° E daylight
12 Apr - 14:38:03 10° SW 14:47:40 55° SSE 14:56:58 10° E daylight
12 Apr - 16:42:06 10° W 16:51:55 73° S 17:01:21 10° E daylight
12 Apr - 18:46:46 10° W 18:56:09 56° SSW 19:05:10 10° SE daylight
12 Apr - 20:52:01 10° W 20:59:20 26° SW 21:06:29 10° S visible
13 Apr - 12:11:55 10° S 12:19:16 24° SE 12:26:27 10° E daylight
13 Apr - 14:12:53 10° SW 14:22:28 53° SSE 14:31:45 10° E daylight
13 Apr - 16:16:50 10° W 16:26:42 72° S 16:36:10 10° E daylight
13 Apr - 18:21:30 10° W 18:30:58 59° SSW 18:40:03 10° SE daylight
13 Apr - 20:26:39 10° W 20:34:15 28° SW 20:41:40 10° S visible
